This demonstration page uses our WeatherBlox Daily Observations layout. Learn more.

Hourly Observations for August 13, 2017

Temp ( °F °C ) Dew Point ( °F °C ) Humidity (%) Winds ( mph kmh ) Pressure ( in mb ) Visibility ( mi km ) Precip ( " mm )
12:54 am 00:54 Clear 68 20 57 13.9 68 68 S 9 15 30.01 1016 10 16.0934 0 0
1:54 am 01:54 Cloudy 68 20 58 14.4 70 70 S 7 11 29.99 1016 10 16.0934 0 0
2:54 am 02:54 Mostly Cloudy 68 20 58 14.4 70 70 S 10 17 29.97 1015 10 16.0934 0 0
3:54 am 03:54 Cloudy with Light Rain 66 18.9 58 14.4 75 75 S 8 13 29.96 1015 10 16.0934 0 0.0254
4:54 am 04:54 Cloudy 66 18.9 59 15 78 78 S 6 9 29.94 1014 10 16.0934 0 0.0254
5:54 am 05:54 Cloudy 66 18.9 60 15.6 81 81 SSE 5 7 29.95 1014 10 16.0934 0 0
6:54 am 06:54 Cloudy 66 18.9 60 15.6 81 81 SSE 9 15 29.95 1014 10 16.0934 0 0
7:54 am 07:54 Cloudy with Light Rain 66 18.9 62 16.7 87 87 SE 7 11 29.96 1015 9 14.48406 0 0.0254
8:27 am 08:27 Cloudy with Rain 65 18.3 62 16.7 90 90 SSE 7 11 29.94 1014 2.5 4.02335 0.06 1.524
8:35 am 08:35 Cloudy with Light Rain 66 18.9 63 17.2 90 90 SSE 3 6 29.94 1014 10 16.0934 0.07 1.778
8:54 am 08:54 Cloudy with Light Rain 66 18.9 63 17.2 90 90 SE 8 13 29.95 1014 10 16.0934 0.07 1.778
9:54 am 09:54 Cloudy 68 20 64 17.8 87 87 SSE 8 13 29.96 1015 10 16.0934 0 0.0254
10:54 am 10:54 Cloudy 72 22.2 65 18.3 79 79 S 13 20 29.95 1014 10 16.0934 0 0
11:54 am 11:54 Cloudy 75 23.9 63 17.2 66 66 S 16 26 29.94 1014 10 16.0934 0 0
12:54 pm 12:54 Partly Cloudy 78 25.6 62 16.7 58 58 S 17 28 29.92 1013 10 16.0934 0 0
1:54 pm 13:54 Partly Cloudy 80 26.7 63 17.2 56 56 S 18 30 29.9 1013 10 16.0934 0 0
2:54 pm 14:54 Partly Cloudy 81 27.2 62 16.7 53 53 SSE 14 22 29.88 1012 10 16.0934 0 0
3:54 pm 15:54 Cloudy 82 27.8 63 17.2 53 53 S 12 19 29.86 1011 10 16.0934 0 0
4:54 pm 16:54 Cloudy 81 27.2 63 17.2 54 54 S 10 17 29.85 1011 10 16.0934 0 0
5:54 pm 17:54 Cloudy 81 27.2 63 17.2 54 54 S 12 19 29.83 1010 10 16.0934 0 0
6:54 pm 18:54 Mostly Cloudy 80 26.7 64 17.8 58 58 S 10 17 29.81 1010 10 16.0934 0 0
7:54 pm 19:54 Sunny 77 25 64 17.8 64 64 SSE 9 15 29.81 1010 10 16.0934 0 0
8:54 pm 20:54 Cloudy 76 24.4 65 18.3 69 69 S 6 9 29.83 1010 10 16.0934 0 0
9:54 pm 21:54 Partly Cloudy 75 23.9 64 17.8 69 69 SSE 10 17 29.82 1010 10 16.0934 0 0.0254
10:54 pm 22:54 Mostly Cloudy 74 23.3 64 17.8 71 71 S 10 17 29.8 1009 10 16.0934 0 0
11:54 pm 23:54 Clear 73 22.8 65 18.3 76 76 S 10 17 29.79 1009 10 16.0934 0 0

Powered by AerisWeather